When you browse on this site, cookies collect data to enhance your experience and personalize the content and advertising you see.
Visit our Privacy Policy to learn more. By continuing to use the site, you agree to this use of cookies and data.
  • En España
  • Lista de países
  • Para 7 días
  • Temperatura del agua
  • Mapa Satelital
  • El tiempo en el mapa
  • Informadores
  • user-avatar
    Iniciar sesión

    Tiempo cada hora Öskemen

    Hoy, 25 Junio, Martes

    Tiempo Temperatura Precipitaciones Viento Presión Humedad
    00:00 +14°C° 0 mm 1 mps 729 mmHg 90%
    01:00 +14°C° 0 mm 1 mps 729 mmHg 90%
    02:00 +13°C° 0 mm 1 mps 729 mmHg 90%
    03:00 +13°C° 0 mm 1 mps 729 mmHg 90%
    04:00 +14°C° 0 mm 1 mps 729 mmHg 89%
    05:00 +14°C° 0 mm 1 mps 729 mmHg 89%
    06:00 +14°C° 0 mm 1 mps 730 mmHg 87%
    07:00 +15°C° 0 mm 1 mps 730 mmHg 84%
    08:00 +16°C° 0 mm 1 mps 730 mmHg 81%
    09:00 +18°C° 0 mm 1 mps 730 mmHg 79%
    10:00 +19°C° 0.1 mm 1 mps 730 mmHg 73%
    11:00 +21°C° 0.1 mm 1 mps 730 mmHg 66%
    12:00 +22°C° 0 mm 1 mps 730 mmHg 59%
    13:00 +21°C° 0.1 mm 2 mps 730 mmHg 59%
    14:00 +22°C° 0.1 mm 3 mps 730 mmHg 59%
    15:00 +22°C° 0.1 mm 3 mps 729 mmHg 59%
    16:00 +22°C° 0.1 mm 4 mps 730 mmHg 62%
    17:00 +21°C° 0.1 mm 4 mps 730 mmHg 65%
    18:00 +21°C° 0 mm 4 mps 730 mmHg 66%
    19:00 +19°C° 0 mm 3 mps 730 mmHg 72%
    20:00 +17°C° 0 mm 2 mps 730 mmHg 78%
    21:00 +15°C° 0 mm 1 mps 730 mmHg 84%
    22:00 +14°C° 0 mm 1 mps 730 mmHg 85%
    23:00 +13°C° 0 mm 1 mps 730 mmHg 86%

    Mañana, 26 Junio, Miércoles

    Tiempo Temperatura Precipitaciones Viento Presión Humedad
    00:00 +12°C° 0 mm 1 mps 730 mmHg 87%
    01:00 +12°C° 0 mm 1 mps 730 mmHg 88%
    02:00 +11°C° 0 mm 1 mps 730 mmHg 89%
    03:00 +11°C° 0 mm 1 mps 729 mmHg 90%
    04:00 +11°C° 0 mm 1 mps 729 mmHg 89%
    05:00 +12°C° 0 mm 1 mps 729 mmHg 87%
    06:00 +13°C° 0 mm 1 mps 729 mmHg 86%
    07:00 +15°C° 0 mm 1 mps 729 mmHg 80%
    08:00 +16°C° 0 mm 0 mps 729 mmHg 74%
    09:00 +18°C° 0 mm 0 mps 729 mmHg 68%
    10:00 +21°C° 0 mm 1 mps 729 mmHg 62%
    11:00 +22°C° 0 mm 1 mps 728 mmHg 56%
    12:00 +23°C° 0 mm 1 mps 728 mmHg 51%
    13:00 +24°C° 0 mm 1 mps 728 mmHg 49%
    14:00 +24°C° 0 mm 1 mps 728 mmHg 48%
    15:00 +25°C° 0 mm 2 mps 728 mmHg 46%
    16:00 +25°C° 0 mm 1 mps 727 mmHg 49%
    17:00 +25°C° 0 mm 1 mps 727 mmHg 52%
    18:00 +24°C° 0 mm 1 mps 727 mmHg 54%
    19:00 +22°C° 0 mm 1 mps 727 mmHg 61%
    20:00 +20°C° 0 mm 1 mps 727 mmHg 67%
    21:00 +16°C° 0 mm 1 mps 727 mmHg 73%
    22:00 +16°C° 0 mm 1 mps 726 mmHg 75%
    23:00 +15°C° 0 mm 1 mps 726 mmHg 76%

    Pasado mañana, 27 Junio, Jueves

    Tiempo Temperatura Precipitaciones Viento Presión Humedad
    00:00 +14°C° 0 mm 1 mps 725 mmHg 78%
    01:00 +14°C° 0 mm 1 mps 725 mmHg 79%
    02:00 +13°C° 0 mm 1 mps 725 mmHg 79%
    03:00 +13°C° 0 mm 1 mps 725 mmHg 80%
    04:00 +13°C° 0 mm 1 mps 725 mmHg 79%
    05:00 +14°C° 0 mm 1 mps 725 mmHg 79%
    06:00 +15°C° 0 mm 1 mps 725 mmHg 78%
    07:00 +18°C° 0 mm 1 mps 725 mmHg 72%
    08:00 +20°C° 0 mm 1 mps 725 mmHg 66%
    09:00 +21°C° 0 mm 0 mps 725 mmHg 60%
    10:00 +22°C° 0 mm 0 mps 725 mmHg 56%
    11:00 +26°C° 0 mm 1 mps 725 mmHg 51%
    12:00 +27°C° 0 mm 1 mps 725 mmHg 47%
    13:00 +28°C° 0 mm 1 mps 725 mmHg 45%
    14:00 +26°C° 0 mm 0 mps 724 mmHg 43%
    15:00 +27°C° 0 mm 0 mps 724 mmHg 41%
    16:00 +29°C° 0 mm 1 mps 724 mmHg 47%
    17:00 +28°C° 0 mm 1 mps 724 mmHg 52%
    18:00 +28°C° 0 mm 1 mps 724 mmHg 57%
    19:00 +26°C° 0 mm 1 mps 724 mmHg 62%
    20:00 +21°C° 0 mm 0 mps 724 mmHg 67%
    21:00 +19°C° 0 mm 0 mps 724 mmHg 71%
    22:00 +18°C° 0 mm 0 mps 724 mmHg 72%
    23:00 +18°C° 0 mm 0 mps 724 mmHg 73%

    28 Junio, Viernes

    Tiempo Temperatura Precipitaciones Viento Presión Humedad
    00:00 +19°C° 0 mm 1 mps 723 mmHg 74%
    01:00 +19°C° 0 mm 1 mps 723 mmHg 75%
    02:00 +18°C° 0 mm 1 mps 723 mmHg 75%
    03:00 +18°C° 0 mm 1 mps 723 mmHg 76%
    04:00 +18°C° 0 mm 1 mps 723 mmHg 77%
    05:00 +19°C° 0 mm 1 mps 723 mmHg 77%
    06:00 +20°C° 0 mm 1 mps 723 mmHg 78%
    07:00 +22°C° 0 mm 1 mps 724 mmHg 73%
    08:00 +22°C° 0 mm 0 mps 724 mmHg 68%
    09:00 +24°C° 0 mm 0 mps 724 mmHg 63%
    10:00 +27°C° 0 mm 1 mps 724 mmHg 60%
    11:00 +28°C° 0 mm 1 mps 724 mmHg 58%
    12:00 +29°C° 0 mm 1 mps 724 mmHg 55%
    13:00 +30°C° 0 mm 1 mps 724 mmHg 53%
    14:00 +31°C° 0 mm 1 mps 724 mmHg 51%
    15:00 +31°C° 0 mm 2 mps 723 mmHg 49%
    16:00 +31°C° 0 mm 2 mps 724 mmHg 54%
    17:00 +31°C° 0 mm 2 mps 724 mmHg 59%
    18:00 +30°C° 0 mm 2 mps 724 mmHg 64%
    19:00 +28°C° 0 mm 2 mps 723 mmHg 70%
    20:00 +26°C° 0 mm 1 mps 723 mmHg 76%
    21:00 +22°C° 0 mm 0 mps 723 mmHg 83%
    22:00 +21°C° 0 mm 0 mps 723 mmHg 83%
    23:00 +22°C° 0 mm 1 mps 723 mmHg 84%

    29 Junio, Sábado

    Tiempo Temperatura Precipitaciones Viento Presión Humedad
    00:00 +21°C° 0 mm 1 mps 723 mmHg 85%
    01:00 +21°C° 0 mm 1 mps 723 mmHg 84%
    02:00 +20°C° 0 mm 1 mps 722 mmHg 83%
    03:00 +19°C° 0 mm 1 mps 722 mmHg 83%
    04:00 +20°C° 0 mm 1 mps 722 mmHg 81%
    05:00 +20°C° 0 mm 1 mps 722 mmHg 80%
    06:00 +21°C° 0 mm 1 mps 722 mmHg 79%
    07:00 +23°C° 0 mm 1 mps 722 mmHg 73%
    08:00 +25°C° 0 mm 1 mps 722 mmHg 67%
    09:00 +28°C° 0 mm 1 mps 722 mmHg 61%
    10:00 +29°C° 0 mm 1 mps 722 mmHg 57%
    11:00 +31°C° 0 mm 1 mps 722 mmHg 54%
    12:00 +32°C° 0 mm 2 mps 722 mmHg 51%
    13:00 +34°C° 0 mm 2 mps 722 mmHg 49%
    14:00 +33°C° 0 mm 1 mps 722 mmHg 48%
    15:00 +34°C° 0 mm 1 mps 722 mmHg 46%
    16:00 +34°C° 0 mm 1 mps 722 mmHg 51%
    17:00 +34°C° 0 mm 2 mps 722 mmHg 56%
    18:00 +34°C° 0 mm 2 mps 722 mmHg 61%
    19:00 +30°C° 0 mm 2 mps 722 mmHg 65%
    20:00 +28°C° 0 mm 2 mps 723 mmHg 69%
    21:00 +26°C° 0 mm 2 mps 723 mmHg 74%
    22:00 +24°C° 0.1 mm 2 mps 723 mmHg 81%
    23:00 +21°C° 0.1 mm 3 mps 723 mmHg 87%

    30 Junio, Domingo

    Tiempo Temperatura Precipitaciones Viento Presión Humedad
    00:00 +20°C° 0.1 mm 3 mps 724 mmHg 94%
    01:00 +19°C° 0.2 mm 4 mps 724 mmHg 94%
    02:00 +18°C° 0.2 mm 4 mps 724 mmHg 94%
    03:00 +17°C° 0.2 mm 4 mps 724 mmHg 94%
    04:00 +15°C° 0.3 mm 4 mps 725 mmHg 94%
    05:00 +14°C° 0.3 mm 4 mps 725 mmHg 95%
    06:00 +13°C° 0.3 mm 4 mps 725 mmHg 95%
    07:00 +13°C° 0.1 mm 3 mps 725 mmHg 94%
    08:00 +13°C° 0.1 mm 3 mps 725 mmHg 93%
    09:00 +12°C° 0.1 mm 3 mps 725 mmHg 92%
    10:00 +14°C° 0 mm 3 mps 725 mmHg 87%
    11:00 +16°C° 0 mm 3 mps 725 mmHg 82%
    12:00 +17°C° 0 mm 3 mps 725 mmHg 76%
    13:00 +18°C° 0 mm 4 mps 725 mmHg 71%
    14:00 +19°C° 0 mm 4 mps 725 mmHg 65%
    15:00 +21°C° 0 mm 4 mps 725 mmHg 60%
    16:00 +20°C° 0 mm 4 mps 725 mmHg 62%
    17:00 +20°C° 0 mm 4 mps 725 mmHg 64%
    18:00 +19°C° 0 mm 4 mps 724 mmHg 66%
    19:00 +17°C° 0 mm 4 mps 724 mmHg 72%
    20:00 +14°C° 0 mm 3 mps 724 mmHg 78%
    21:00 +14°C° 0 mm 2 mps 724 mmHg 85%
    22:00 +13°C° 0 mm 2 mps 724 mmHg 86%
    23:00 +12°C° 0 mm 1 mps 724 mmHg 86%
    Mostrar más